Location: Bush Observatory
(40.2653°N, 94.3194°W)
Time: 18:56:54
(UTC-05:00)

JAS-2 - Visible Passes

Search period start: 27 May 2015 00:00
Search period end: 06 June 2015 00:00
Orbit: 800 x 1322 km, 98.5° (Epoch: 26 May)

Date Brightness Start Highest point End Pass type
(mag) Time Alt. Az. Time Alt. Az. Time Alt. Az.
27 May 11.2 04:15:47 10° NE 04:19:50 23° E 04:24:07 10° SSE visible
28 May 9.5 05:05:01 10° NNE 05:10:11 69° ESE 05:15:34 10° S visible
29 May 11.3 04:10:54 10° NE 04:14:48 22° E 04:18:57 10° SE visible
30 May 9.6 05:00:01 10° NNE 05:05:10 63° E 05:10:36 10° S visible
31 May 11.4 04:06:02 10° NE 04:09:45 20° E 04:13:48 10° SE visible
01 Jun 9.8 04:55:01 10° NNE 05:00:09 58° E 05:05:37 10° S visible
02 Jun 11.5 04:01:09 10° NE 04:04:43 19° E 04:08:38 10° SE visible
03 Jun 9.9 04:50:01 10° NNE 04:55:08 54° E 05:00:39 10° S visible
04 Jun 11.6 03:56:18 10° NE 03:59:41 17° E 04:03:26 10° SE visible
05 Jun 10.1 04:45:00 10° NNE 04:50:07 50° E 04:55:41 10° S visible
